RH
36 44 48 51 64 68 71 74 72 82 88 92 92 85 84 92 95 94 95 96 91 80 67 71 81 77 78 72 72 70 68 59 63 69 56 50 51 51 52 56 61 69 69
29 43 48 54 62 64 64 72 77 74 79 81 92 91 83 84 89 96 96 97 100 99 88 74 78 86 79 77 83 81 73 67 64 58 61 72 65 66 65 68 67 73 75
26 42 47 50 56 66 75 77 79 78 72 83 87 86 89 99 92 92 92 98 98 100 96 81 88 95 91 82 78 81 75 70 71 66 69 82 76 78 77 73 69 72 74
28 31 42 45 51 58 76 81 83 75 72 84 81 81 85 98 98 99 100 98 100 100 99 98 95 91 92 85 85 88 76 77 75 78 78 78 78 81 80 80 78 77 77
32 32 40 44 49 48 58 78 78 72 78 81 90 90 93 100 96 96 91 74 95 93 90 93 98 98 99 91 84 85 83 78 78 79 74 69 68 81 93 88 86 86 86
33 35 35 48 49 48 52 78 77 77 83 83 76 72 77 87 88 88 88 90 90 89 88 93 94 97 94 92 85 87 84 76 72 68 72 71 70 64 81 93 94 95 94
32 35 39 51 51 50 51 58 76 82 84 78 66 68 68 70 67 85 81 76 78 80 83 96 87 90 88 80 76 75 75 64 58 47 58 60 77 82 95 100 97 99 99
29 33 41 54 55 53 51 54 56 60 67 71 63 60 59 63 58 64 73 60 57 76 78 80 90 86 79 79 68 70 62 53 48 64 70 71 71 98 100 100 100 97 94
30 34 43 45 54 54 51 51 51 52 56 56 74 73 67 64 65 71 69 66 59 57 57 68 65 60 66 65 72 76 58 54 59 67 77 94 100 100 100 99 100 97 100
30 36 38 44 55 53 50 44 42 45 53 55 59 60 66 68 70 67 71 73 71 68 69 68 74 82 87 86 88 74 70 71 71 83 98 99 99 100 99 99 94 98 100
31 34 40 42 46 50 48 43 43 42 44 49 56 64 75 76 74 78 70 65 64 68 68 79 78 92 94 97 88 75 64 54 47 45 44 73 89 98 99 98 100 100 100
34 36 39 42 46 47 49 44 41 40 40 47 53 55 72 84 74 72 77 84 88 84 80 78 74 66 57 51 46 41 38 38 38 38 43 51 67 97 99 100 88 94 100
42 39 39 45 48 49 51 54 50 49 51 59 65 70 79 75 74 70 68 63 58 53 50 47 46 45 43 42 40 42 44 45 47 53 62 62 99 91 83 96 94 100 97
55 53 52 54 56 56 62 61 58 57 57 58 58 59 58 55 51 48 46 45 44 45 46 46 46 47 48 50 51 53 55 60 63 66 75 97 96 100 100 100 98 99 100
58 58 61 63 67 71 73 68 61 58 56 56 53 51 49 48 47 48 48 49 50 51 52 52 52 52 54 57 62 64 67 72 79 98 100 99 100 98 98 99 100 99 94
61 62 63 67 70 72 73 69 61 56 54 52 49 49 51 52 53 53 53 54 54 53 52 52 52 53 60 65 73 80 82 84 90 98 98 98 94 92 100 100 98 92 93
62 64 64 66 69 67 64 60 57 56 55 53 53 56 58 58 58 58 59 58 56 55 55 55 56 60 68 76 82 88 93 96 97 97 97 95 95 99 96 94 92 91 92
63 65 66 66 65 65 62 59 57 57 58 59 61 61 62 62 64 65 64 61 61 62 64 66 67 68 72 74 78 82 84 88 90 93 95 97 90 92 94 92 94 94 93
66 68 69 70 68 64 63 61 60 61 61 60 59 60 63 64 66 67 67 67 68 69 70 70 70 71 75 83 81 88 78 87 94 100 100 98 99 92 99 95 93 90 87
68 70 71 74 76 73 69 67 65 63 62 61 61 62 64 66 69 70 71 73 73 73 74 77 77 77 82 86 87 89 94 100 100 100 100 100 100 98 97 88 56 24 10
61 62 61 58 59 69 76 71 72 70 70 72 69 65 68 70 73 74 75 76 76 77 77 80 84 84 87 89 90 93 97 100 100 100 100 98 100 88 53 19 8 7 7
70 68 67 68 68 67 70 73 75 76 75 74 74 75 73 73 75 75 78 80 79 80 85 88 91 91 91 94 96 98 99 100 100 100 98 88 47 18 9 8 7 8 8
76 76 76 77 76 72 72 75 78 79 80 81 81 78 76 77 78 81 84 86 87 89 93 95 93 95 100 99 98 100 100 100 99 87 51 23 15 11 10 10 8 9 8
75 76 76 83 85 80 72 77 78 79 81 80 80 80 80 85 89 88 88 88 92 96 100 98 90 95 100 99 98 100 100 95 57 26 18 15 13 10 10 10 10 9 10
76 78 80 83 84 90 90 80 77 82 86 88 91 92 92 92 91 91 94 97 99 100 100 100 99 98 99 100 100 100 96 54 25 19 16 13 11 10 10 11 12 11 11
79 81 83 83 80 80 79 83 92 95 94 93 94 91 87 87 90 95 91 92 99 100 100 100 100 100 100 100 99 100 82 32 24 18 13 10 10 11 12 14 14 12 11
Wind_Speed
25 26 23 18 19 22 18 15 15 20 25 27 25 24 23 24 20 19 19 15 15 17 16 18 17 18 18 15 15 14 15 13 14 13 10 10 11 13 13 13 12 12 12
23 30 25 18 15 21 22 19 16 15 21 23 20 25 26 24 23 20 21 20 17 19 19 17 17 17 17 16 15 14 13 14 13 11 8 7 9 12 11 12 11 10 12
27 27 27 20 17 17 23 23 19 16 18 20 22 24 24 23 25 29 27 25 22 20 20 15 16 16 15 16 16 16 15 13 13 12 10 4 5 6 9 11 12 13 13
23 22 29 25 19 17 23 24 22 20 16 18 19 22 21 18 18 22 24 20 21 21 21 17 17 17 17 15 15 16 15 15 16 15 16 18 14 8 7 13 14 16 16
25 24 19 29 25 16 17 23 20 18 17 16 15 15 12 12 11 10 12 16 14 14 13 16 17 17 17 17 14 19 15 16 17 17 19 19 21 23 24 17 17 17 17
12 20 21 25 24 20 18 18 19 19 20 19 15 10 7 14 11 10 12 15 18 14 12 11 13 14 16 14 11 14 18 14 17 20 21 26 29 34 28 29 27 19 19
23 15 20 24 22 20 19 17 17 18 18 16 14 12 6 1 4 14 18 11 16 18 12 13 13 13 12 12 14 14 23 19 19 23 28 32 34 34 32 27 23 21 23
25 25 24 22 20 20 19 20 17 18 16 15 12 8 7 9 4 11 21 16 14 23 23 20 15 13 17 13 11 18 23 24 34 32 34 36 36 28 32 29 25 25 24
27 29 20 23 26 24 22 21 16 16 15 10 17 17 18 18 18 27 21 21 15 11 7 15 8 8 12 16 21 30 30 32 35 34 30 28 25 24 26 25 24 26 24
28 27 26 22 22 26 24 22 15 21 19 12 20 20 25 31 26 27 26 32 26 27 24 22 23 24 27 26 31 34 34 33 32 30 28 26 26 25 26 25 28 26 26
20 30 27 21 21 21 22 24 23 18 21 18 28 30 31 37 34 34 33 32 29 30 30 31 31 33 34 29 27 27 27 29 31 31 32 31 28 28 27 26 29 23 28
9 15 18 24 24 21 22 21 23 25 26 28 28 23 20 18 20 23 22 19 17 18 17 17 17 19 21 23 25 26 27 28 29 27 28 29 26 28 25 27 29 29 25
13 14 14 16 19 19 20 22 22 21 21 20 18 16 13 12 11 11 12 12 12 13 13 15 16 18 20 22 24 24 25 25 24 23 22 21 21 26 26 21 22 27 26
13 14 15 14 12 14 19 20 21 20 18 16 15 14 15 14 13 11 10 10 10 10 11 12 13 15 18 19 21 22 23 23 22 22 22 19 21 22 23 22 24 21 18
15 15 16 15 16 16 14 16 18 18 17 17 15 14 13 11 10 9 9 8 8 8 8 9 11 14 17 18 20 21 21 21 21 19 18 20 19 21 23 19 20 20 20
14 14 16 16 16 17 16 15 15 15 15 15 13 11 11 11 11 10 8 8 7 7 7 9 10 12 14 17 17 17 19 19 20 19 20 21 22 23 22 21 20 20 17
15 15 16 15 14 14 14 14 14 13 13 12 11 11 11 10 9 8 8 8 7 6 8 10 12 12 12 12 14 15 15 16 16 17 18 20 19 18 19 20 19 19 17
11 11 9 9 10 10 10 11 11 12 12 11 11 10 10 10 10 10 10 10 9 10 10 10 11 12 11 10 14 16 15 16 16 17 18 18 17 17 16 17 16 17 16
12 11 8 6 7 9 10 10 10 11 11 11 11 11 10 10 11 12 12 12 12 12 13 14 13 13 13 10 12 14 16 14 14 15 15 15 14 14 14 14 13 13 14
10 11 11 11 8 6 9 11 12 12 12 12 12 12 11 12 12 12 11 11 12 13 14 14 13 13 13 11 11 14 13 13 13 14 14 14 14 14 13 13 11 11 12
7 6 5 5 8 11 10 11 12 13 13 14 14 13 12 12 12 13 13 14 13 13 14 14 14 14 12 12 11 13 12 13 14 14 14 14 12 13 12 11 10 11 11
6 5 3 1 4 6 10 14 14 16 16 15 15 13 12 12 13 14 14 15 14 14 14 14 14 14 13 13 14 14 13 14 13 12 12 12 11 11 11 11 11 11 10
3 3 4 5 5 3 5 9 12 14 15 14 13 12 11 12 12 14 15 16 16 16 15 14 15 15 15 15 15 14 14 14 12 12 11 11 11 11 12 11 9 10 9
3 3 3 5 5 3 3 4 3 5 8 8 8 9 10 12 13 13 15 16 17 17 17 15 15 16 17 16 17 15 14 13 13 12 13 13 13 13 12 11 9 9 9
4 4 4 4 5 4 3 4 6 6 7 8 9 9 10 13 14 15 15 16 17 18 17 16 16 17 19 17 16 16 13 14 14 15 16 16 15 13 12 11 10 9 9
4 3 4 5 6 6 5 6 7 8 9 10 11 11 12 13 14 16 16 16 16 18 18 19 17 17 18 17 16 16 15 15 16 18 18 16 15 14 12 11 11 11 10
Wind_Direction
191 175 168 180 186 182 186 194 202 203 207 206 199 203 205 210 206 207 198 216 217 216 216 209 214 219 226 229 233 233 233 234 227 233 250 254 261 264 262 259 259 259 272
203 176 167 169 185 187 184 190 207 221 214 212 203 209 213 216 220 216 214 204 206 215 222 219 222 224 227 228 230 235 235 240 239 245 252 277 275 262 264 265 257 260 255
215 173 170 169 184 184 186 182 198 212 219 215 216 216 213 216 214 224 225 217 215 224 226 228 224 227 237 231 233 236 244 246 248 249 241 251 257 301 256 261 249 250 252
202 199 176 181 189 181 182 184 188 197 196 205 216 218 219 218 224 229 221 212 229 228 230 234 228 227 237 241 244 244 251 251 248 252 249 247 258 262 261 246 242 248 257
196 207 180 188 188 187 188 193 189 188 188 195 204 198 189 184 192 205 199 193 216 223 234 235 229 227 236 236 245 256 254 255 254 255 274 276 276 262 255 256 240 245 247
204 193 206 182 179 177 184 179 185 186 190 189 195 188 205 224 211 236 217 206 210 203 202 228 235 235 235 240 244 260 256 254 274 286 272 272 284 280 269 259 256 255 257
217 209 193 181 182 180 177 175 170 174 191 194 193 206 197 176 130 273 264 225 235 237 223 233 236 237 261 280 271 275 260 274 285 279 280 275 267 266 269 268 264 262 268
210 209 195 194 197 197 191 184 180 178 174 192 213 210 202 228 198 238 254 248 290 269 250 245 282 253 270 264 280 273 271 273 254 274 269 274 272 266 256 254 266 270 267
208 198 195 208 215 199 202 199 188 199 191 211 225 236 237 236 239 242 247 254 245 224 238 243 297 251 235 231 241 255 252 252 265 271 270 270 270 263 259 264 264 264 249
201 196 200 200 201 208 208 204 199 208 208 227 245 254 245 237 237 247 247 250 250 247 241 239 232 241 244 247 248 249 252 258 264 267 266 265 265 263 258 263 267 260 252
196 196 189 198 199 193 202 209 215 214 216 239 238 232 237 235 232 232 236 244 243 243 243 242 244 240 244 242 245 250 255 259 264 267 268 262 262 258 253 262 256 248 258
163 158 163 186 188 200 205 214 221 221 225 232 232 237 234 234 237 242 243 244 241 234 234 236 239 241 246 251 256 260 261 265 268 267 264 261 258 253 264 242 257 264 243
148 157 174 176 190 203 209 209 212 216 213 212 210 208 216 216 221 221 217 219 224 230 232 234 240 249 254 258 263 265 267 267 267 266 262 262 247 252 250 248 249 236 247
150 167 179 186 200 209 206 204 203 205 201 200 195 193 199 205 210 217 221 228 237 247 253 260 264 267 268 269 269 269 269 268 266 261 259 250 251 246 248 251 248 239 243
145 155 160 164 171 173 189 194 196 191 190 193 192 196 202 207 215 222 227 235 242 252 268 276 285 287 283 280 275 274 270 268 269 263 257 251 246 242 242 247 249 253 254
137 147 154 164 171 178 185 191 188 184 188 194 197 200 209 210 213 217 220 224 233 248 269 282 294 302 306 297 281 276 274 271 267 259 255 253 252 247 239 236 240 245 245
147 154 157 161 168 174 184 184 186 186 191 199 200 203 205 207 213 219 226 235 245 264 284 302 303 307 310 311 293 282 275 271 266 256 247 243 241 240 238 240 240 246 243
148 149 152 160 173 184 192 193 191 190 193 197 198 204 212 217 221 226 232 242 255 269 273 281 289 296 296 296 291 278 272 266 257 249 245 242 240 239 239 236 229 226 228
142 143 149 161 180 188 194 198 196 197 202 210 215 220 225 229 230 232 236 244 260 277 282 280 280 283 282 282 284 276 273 262 249 238 232 233 233 234 228 220 214 212 217
155 162 165 167 175 210 213 216 216 218 219 222 227 232 234 239 241 245 250 264 276 275 275 268 268 274 276 271 273 274 269 250 240 237 233 236 232 226 220 214 211 215 222
124 128 149 177 190 198 220 236 231 234 234 231 233 239 237 242 248 258 269 270 272 275 275 274 271 271 270 270 267 270 265 241 238 238 242 238 224 219 220 219 228 233 234
92 81 58 338 261 240 231 232 231 235 241 246 245 241 245 251 257 264 266 266 267 265 267 271 270 269 269 268 268 268 259 243 235 236 231 226 219 222 233 238 237 240 237
77 56 24 8 352 313 262 239 238 240 245 243 238 242 250 258 265 270 275 273 269 265 266 270 272 271 263 265 263 259 249 237 226 227 229 230 232 233 239 246 239 239 234
346 347 356 360 351 328 298 287 266 234 228 231 238 249 266 273 273 275 276 275 272 266 265 262 266 273 264 259 258 250 241 234 232 233 237 241 240 240 241 240 235 231 228
353 351 329 328 339 335 323 291 272 265 261 258 261 269 275 280 281 279 277 279 273 268 266 262 266 271 267 263 263 255 235 238 238 239 242 243 243 243 242 238 238 234 234
12 353 341 332 330 328 325 291 279 273 270 270 268 268 273 281 285 285 278 273 269 269 270 267 268 272 264 251 252 249 223 232 237 240 241 243 245 246 247 246 244 242 243